Weather History for KMZZ - March, 2014

Change the Weather History Date:

Tuesday, March 4, 2014

  Actual Average (KMIE) Record (KMIE)
Temperature  
Mean Temperature 14 °F 35 °F  
Max Temperature 52 °F 44 °F 74 °F (1976)
Min Temperature 5 °F 26 °F 3 °F (2002)
Degree Days  
Heating Degree Days 51 30  
Month to date heating degree days 122  
Since 1 July heating degree days 4505  
Cooling Degree Days 0 0  
Month to date cooling degree days 0  
Year to date cooling degree days 0  
Moisture  
Dew Point 4 °F    
Average Humidity 63    
Maximum Humidity 71    
Minimum Humidity 53    
Precipitation  
Precipitation 0.00 in 0.09 in 2.64 in (1963)
Month to date precipitation 0.34  
Year to date precipitation 4.88  
Sea Level Pressure  
Sea Level Pressure 30.26 in    
Wind  
Wind Speed 3 mph (SSE)    
Max Wind Speed 9 mph    
Max Gust Speed -    
Visibility 9 miles    
Events Snow    
T = Trace of Precipitation, MM = Missing Value Source: NWS Daily Summary

Daily Weather History Graph

Daily Weather History Graph

Search for Another Location

Airport or City:

Trip Planner

Search our weather history database for the weather conditions in past years. The results will help you decide how hot, cold, wet, or windy it might be!

Date:

Astronomy

Mar. 04, 2014 Rise Set
Actual Time 7:11 AM EST 6:37 PM EST
Civil Twilight 6:44 AM EST 7:04 PM EST
Nautical Twilight 6:13 AM EST 7:36 PM EST
Astronomical Twilight 5:41 AM EST 8:08 PM EST
Moon 8:56 AM EST (3/4) 10:45 PM EST (3/4)
Length of Visible Light 12h 20m
Length of Day
11h 25m
Waxing Crescent, 14% of the Moon is Illuminated
Mar 4
Waxing Crescent
Mar 8
First Quarter
Mar 16
Full
Mar 23
Last Quarter
Mar 30
New

Hourly Weather History & Observations

Time (EST) Temp. Windchill Dew Point Humidity Pressure Visibility Wind Dir Wind Speed Gust Speed Precip Events Conditions
12:15 AM 5.9 °F - -4.5 °F 62% 30.38 in 5.0 mi Calm Calm - N/A Snow Light Snow
12:35 AM 5.9 °F - -4.4 °F 63% 30.38 in 10.0 mi Calm Calm - N/A   Clear
12:55 AM 5.9 °F - -3.8 °F 64% 30.38 in 7.0 mi Calm Calm - N/A   Clear
1:15 AM 6.3 °F -0.7 °F -3.8 °F 63% 30.36 in 10.0 mi SE 3.5 mph - N/A   Clear
1:35 AM 6.6 °F - -3.3 °F 64% 30.36 in 10.0 mi Calm Calm - N/A   Clear
1:55 AM 6.8 °F - -2.9 °F 64% 30.36 in 10.0 mi Calm Calm - N/A   Clear
2:15 AM 7.0 °F 0.1 °F -2.4 °F 66% 30.36 in 10.0 mi East 3.5 mph - N/A   Clear
2:35 AM 7.2 °F - -2.2 °F 66% 30.35 in 10.0 mi Calm Calm - N/A   Clear
2:55 AM 7.5 °F -3.9 °F -2.2 °F 65% 30.34 in 10.0 mi SE 6.9 mph - N/A   Clear
3:15 AM 7.5 °F -6.0 °F -2.6 °F 63% 30.31 in 10.0 mi SE 9.2 mph - N/A   Clear
3:35 AM 7.5 °F -2.6 °F -2.7 °F 63% 30.31 in 10.0 mi SE 5.8 mph - N/A   Clear
3:55 AM 7.5 °F -1.1 °F -2.6 °F 63% 30.31 in 10.0 mi ESE 4.6 mph - N/A   Clear
4:15 AM 7.5 °F -1.1 °F -2.2 °F 65% 30.32 in 10.0 mi SE 4.6 mph - N/A   Clear
4:35 AM 7.0 °F - -2.2 °F 66% 30.33 in 10.0 mi Calm Calm - N/A   Clear
4:55 AM 6.8 °F - -2.4 °F 66% 30.33 in 10.0 mi Calm Calm - N/A   Clear
5:15 AM 6.8 °F - -2.6 °F 66% 30.34 in 5.0 mi Calm Calm - N/A   Haze
5:35 AM 6.4 °F - -2.7 °F 66% 30.34 in 4.0 mi Calm Calm - N/A   Haze
5:55 AM 6.1 °F - -2.7 °F 67% 30.34 in 10.0 mi Calm Calm - N/A   Clear
6:15 AM 6.1 °F - -1.7 °F 71% 30.34 in 10.0 mi Calm Calm - N/A   Clear
6:35 AM 7.2 °F - -1.5 °F 68% 30.33 in 10.0 mi Calm Calm - N/A   Scattered Clouds
6:55 AM 6.8 °F - -1.8 °F 68% 30.33 in 10.0 mi Calm Calm - N/A   Scattered Clouds
7:15 AM 7.0 °F 0.1 °F -1.5 °F 68% 30.32 in 10.0 mi SE 3.5 mph - N/A   Mostly Cloudy
7:35 AM 7.5 °F - -0.4 °F 70% 30.32 in 10.0 mi Calm Calm - N/A   Overcast
7:55 AM 7.9 °F -2.2 °F -0.0 °F 70% 30.31 in 10.0 mi SE 5.8 mph - N/A   Mostly Cloudy
8:15 AM 8.2 °F -0.3 °F -0.0 °F 69% 30.33 in 10.0 mi SSE 4.6 mph - N/A   Mostly Cloudy
8:35 AM 8.8 °F -3.5 °F 0.7 °F 70% 30.31 in 10.0 mi SSE 8.1 mph - N/A   Overcast
8:55 AM 9.5 °F -2.6 °F 1.6 °F 70% 30.31 in 10.0 mi SSE 8.1 mph - N/A   Mostly Cloudy
9:15 AM 10.2 °F 0.6 °F 1.9 °F 69% 30.31 in 10.0 mi South 5.8 mph - N/A   Scattered Clouds
9:35 AM 11.5 °F -1.1 °F 2.8 °F 68% 30.30 in 10.0 mi South 9.2 mph - N/A   Scattered Clouds
9:55 AM 12.7 °F 3.6 °F 3.4 °F 66% 30.30 in 10.0 mi SSW 5.8 mph - N/A   Scattered Clouds
10:15 AM 13.8 °F 4.9 °F 3.9 °F 65% 30.29 in 10.0 mi SSW 5.8 mph - N/A   Mostly Cloudy
10:35 AM 14.9 °F 6.1 °F 4.3 °F 63% 30.28 in 10.0 mi South 5.8 mph - N/A   Overcast
10:55 AM 15.4 °F 6.8 °F 5.0 °F 63% 30.27 in 10.0 mi SSW 5.8 mph - N/A   Mostly Cloudy
11:15 AM 15.8 °F 8.6 °F 5.0 °F 62% 30.27 in 5.0 mi SSW 4.6 mph - N/A   Haze
11:35 AM 16.5 °F 8.1 °F 5.5 °F 62% 30.26 in 10.0 mi SW 5.8 mph - N/A   Overcast
11:55 AM 17.4 °F 8.0 °F 6.4 °F 62% 30.26 in 10.0 mi SSW 6.9 mph - N/A   Overcast
12:15 PM 18.7 °F 11.9 °F 6.1 °F 58% 30.26 in 10.0 mi SW 4.6 mph - N/A   Overcast
12:35 PM 19.9 °F 10.1 °F 6.8 °F 57% 30.26 in 7.0 mi SW 8.1 mph - N/A   Overcast
12:55 PM 20.1 °F 11.3 °F 7.0 °F 57% 30.25 in 3.0 mi WSW 6.9 mph - N/A Snow Light Snow
1:15 PM 20.5 °F 11.7 °F 7.7 °F 58% 30.24 in 5.0 mi West 6.9 mph - N/A   Haze
1:35 PM 21.0 °F 13.4 °F 7.9 °F 57% 30.22 in 10.0 mi SW 5.8 mph - N/A   Overcast
1:55 PM 21.4 °F 15.1 °F 7.2 °F 54% 30.21 in 5.0 mi WSW 4.6 mph - N/A   Haze
2:15 PM 21.9 °F - 7.5 °F 54% 30.20 in 10.0 mi Calm Calm - N/A   Overcast
2:35 PM 22.1 °F 15.9 °F 7.5 °F 54% 30.20 in 10.0 mi West 4.6 mph - N/A   Overcast
2:55 PM 22.3 °F 17.6 °F 8.1 °F 54% 30.20 in 7.0 mi West 3.5 mph - N/A   Overcast
3:15 PM 22.6 °F - 8.2 °F 54% 30.19 in 10.0 mi Calm Calm - N/A   Overcast
3:35 PM 22.8 °F - 8.4 °F 54% 30.19 in 10.0 mi Calm Calm - N/A   Overcast
3:55 PM 23.2 °F - 9.1 °F 55% 30.19 in 4.0 mi Calm Calm - N/A   Haze
4:15 PM 23.5 °F - 9.1 °F 54% 30.19 in 10.0 mi Calm Calm - N/A   Scattered Clouds
4:35 PM 23.7 °F - 8.6 °F 53% 30.19 in 10.0 mi Calm Calm - N/A   Clear
4:55 PM 23.9 °F - 9.0 °F 53% 30.18 in 10.0 mi Calm Calm - N/A   Clear
5:15 PM 23.7 °F - 9.0 °F 53% 30.18 in 3.0 mi Calm Calm - N/A   Haze
5:35 PM 23.4 °F 18.9 °F 10.0 °F 57% 30.18 in 5.0 mi North 3.5 mph - N/A   Haze
5:55 PM 22.6 °F - 10.8 °F 60% 30.18 in 10.0 mi Calm Calm - N/A   Clear
6:15 PM 22.1 °F - 10.2 °F 60% 30.19 in 10.0 mi Calm Calm - N/A   Mostly Cloudy
6:35 PM 22.1 °F - 10.4 °F 61% 30.19 in 10.0 mi Calm Calm - N/A   Overcast
6:55 PM 22.3 °F - 11.1 °F 62% 30.19 in 5.0 mi Calm Calm - N/A Snow Light Snow
7:15 PM 23.0 °F - 10.6 °F 59% 30.19 in 3.0 mi Calm Calm - N/A Snow Light Snow
7:35 PM 22.3 °F - 12.0 °F 65% 30.20 in 10.0 mi Calm Calm - N/A   Overcast
7:55 PM 21.7 °F - 12.4 °F 67% 30.20 in 7.0 mi Calm Calm - N/A   Overcast
8:15 PM 21.6 °F - 10.8 °F 63% 30.20 in 4.0 mi Calm Calm - N/A Snow Light Snow
8:35 PM 19.2 °F 11.3 °F 9.9 °F 67% 30.20 in 10.0 mi North 5.8 mph - N/A   Scattered Clouds
8:55 PM 17.8 °F 9.6 °F 9.3 °F 69% 30.19 in 10.0 mi NE 5.8 mph - N/A   Clear
9:15 PM 18.7 °F 11.9 °F 8.4 °F 64% 30.19 in 10.0 mi NE 4.6 mph - N/A   Clear
9:35 PM 18.5 °F 11.7 °F 7.5 °F 62% 30.20 in 10.0 mi NE 4.6 mph - N/A   Clear
9:55 PM 17.4 °F 10.4 °F 7.2 °F 64% 30.21 in 10.0 mi ENE 4.6 mph - N/A   Clear
10:15 PM 17.8 °F 10.9 °F 7.5 °F 64% 30.21 in 10.0 mi East 4.6 mph - N/A   Clear
10:35 PM 17.4 °F 10.4 °F 7.3 °F 65% 30.21 in 10.0 mi ENE 4.6 mph - N/A   Clear
10:55 PM 16.9 °F 11.5 °F 7.0 °F 65% 30.21 in 10.0 mi ENE 3.5 mph - N/A   Clear
11:15 PM 16.7 °F 11.2 °F 7.2 °F 66% 30.22 in 7.0 mi NE 3.5 mph - N/A Snow Light Snow
11:35 PM 15.8 °F 10.2 °F 7.3 °F 69% 30.22 in 4.0 mi ENE 3.5 mph - N/A Snow Light Snow
11:55 PM 15.8 °F 8.6 °F 7.0 °F 68% 30.22 in 10.0 mi ENE 4.6 mph - N/A   Clear